Location: Newark
(45.2500°N, 7.5833°E)
Time: 05:00:46
(UTC+00:00)

Tiros 1 despin weight - Pass Details

Date: 30 January 2020
Orbit: 594 x 642 km, 48.2° (Epoch: 25 February)

Event Time Altitude Azimuth Distance (km) Brightness Sun altitude
Rises 07:38:31 0° 196° (SSW) 2,823 ? 6.2°
Reaches altitude 10° 07:41:29 10° 175° (S) 1,932 ? 6.6°
Maximum altitude 07:44:17 17° 136° (SE) 1,560 ? 7.0°
Drops below altitude 10° 07:47:06 10° 97° (E) 1,956 ? 7.4°
Sets 07:50:07 0° 76° (ENE) 2,875 ? 7.9°
